Location: Newark
(35.5936°N, 43.2312°E)
Time: 10:48:25
(UTC+00:00)

ISS - Visible Passes

Search period start: 17 August 2019 00:00
Search period end: 27 August 2019 00:00
Orbit: 410 x 420 km, 51.6° (Epoch: 17 August)

Date Brightness Start Highest point End Pass type
(mag) Time Alt. Az. Time Alt. Az. Time Alt. Az.
24 Aug -1.8 02:04:45 10° S 02:07:35 26° SE 02:10:26 10° ENE visible
25 Aug -1.1 01:17:07 10° SSE 01:18:57 14° SE 01:20:46 10° E visible
26 Aug -3.8 02:03:11 10° SW 02:06:31 89° NW 02:09:52 10° NE visible
